+ View the NASA Portal
+ Center for Near-Earth Object Studies
IMPORTANT:
The SSD Announcement email list is now available. Major changes are coming in the near future, including possible hostname and/or URL changes. To be notified of such changes, subscribe to this email list.
Please visit
this page
for more details.
Don't show this message again
JPL Small-Body Database Browser
Search:
[
help
]
382388 (2013 TP127)
Classification:
Mars-crossing Asteroid
SPK-ID:
2382388
[
Ephemeris
|
Orbit Diagram
|
Orbital Elements
|
Mission Design
|
Physical Parameters
|
Discovery Circumstances
|
Close-Approach Data
]
[ show orbit diagram ]
Orbital Elements at Epoch 2458600.5 (2019-Apr-27.0) TDB
Reference:
JPL 12
(heliocentric ecliptic J2000)
Element
Value
Uncertainty (1-sigma)
Units
e
.4296749252586643
1.5113e-07
a
2.717464102379653
2.8035e-08
au
q
1.549837917296573
4.0839e-07
au
i
22.88947417310384
1.6118e-05
deg
node
200.1731328050577
1.9252e-05
deg
peri
247.4634697890864
4.0618e-05
deg
M
65.20057373197955
2.0232e-05
deg
t
p
2458304.158095870359
(2018-Jul-04.65809587)
9.0184e-05
TDB
period
1636.229244319438
4.48
2.5321e-05
6.933e-08
d
yr
n
.2200180697477607
3.4048e-09
deg/d
Q
3.885090287462734
4.0081e-08
au
Orbit Determination Parameters
# obs. used (total)
152
data-arc span
15155 days (41.49 yr)
first obs. used
1977-10-11
last obs. used
2019-04-09
planetary ephem.
DE431
SB-pert. ephem.
SB431-N16
condition code
0
norm. resid. RMS
.50103
source
ORB
producer
Otto Matic
solution date
2019-Jul-14 15:40:16
Additional Information
Earth MOID
= .692251 au
Jupiter MOID
= 2.04963 au
T_jup
= 3.117
[ show covariance matrix ]
[
Ephemeris
|
Orbit Diagram
|
Orbital Elements
|
Mission Design
|
Physical Parameters
|
Discovery Circumstances
|
Close-Approach Data
]
Physical Parameter Table
Parameter
Symbol
Value
Units
Sigma
Reference
Notes
absolute magnitude
H
17.4
n/a
MPO281841
diameter
diameter
1.658
km
0.476
urn:nasa:pds:neowise_diameters_albedos::2.0[mainbelt] (http://adsabs.harvard.edu/abs/2015ApJ...814..117N)
geometric albedo
albedo
0.060
0.033
urn:nasa:pds:neowise_diameters_albedos::2.0[mainbelt] (http://adsabs.harvard.edu/abs/2011ApJ...741...68M)
382388 (2013 TP127)
Discovered 1977-Oct-11 by van Houten, C. J., van Houten-Groeneveld, I., Gehrels, T. at Palomar
Reference:
Last Updated:
2013-12-19
[ hide close-approach data ]
Close-Approach Data
...sorted by
Date/Time (TDB)
Date/Time (TDB)
Time Uncertainty
(days_HH:MM)
Body
Nominal Distance (au)
Minimum Distance (au)
Maximum Distance (au)
V-relative (km/s)
V-infinity (km/s)
JD (TDB)
Time Uncertainty (minutes)
Semi-major axis (km)
Semi-minor axis (km)
range-LOV angle (deg)
N-sigma
BP
Orbit Ref.
Reference
Modified
1903-Feb-21 06:00
00:02
Juno
0.045453269677336
0.0454468096348565
0.0454597304630934
5.71964761089434
5.71964756409804
2416166.749742922
1.60427494533061
458.946670987296
149.335881273276
48.8981022942095
35648.993080462
T
12
CATAB v2.0e-lin.ifort 2019-Jul-14 15:40:19
2019-Jul-14 15:40
Alternate Designations
2013 TP127
= 2004 XW30 = 2010 AH134 = 2013 SL5 = 3119 T-3
[
Ephemeris
|
Orbit Diagram
|
Orbital Elements
|
Mission Design
|
Physical Parameters
|
Discovery Circumstances
|
Close-Approach Data
]
2019-Dec-09 21:09 UT
(server date/time)
Site Manager:
Ryan S. Park
Webmaster
:
Alan B. Chamberlin